Weather History for Cancun, Mexico

Change the Weather History Date:

Wednesday, February 12, 2014

  Actual Average Record
Temperature  
Mean Temperature 78 °F -  
Max Temperature 84 °F 82 °F 87 °F (1999)
Min Temperature 69 °F 66 °F 60 °F (1999)
Cooling Degree Days 12    
Growing Degree Days 28 (Base 50)    
Moisture  
Dew Point 70 °F    
Average Humidity 80    
Maximum Humidity 94    
Minimum Humidity 58    
Precipitation  
Precipitation 0.00 in - - ()
Sea Level Pressure  
Sea Level Pressure 29.91 in    
Wind  
Wind Speed 6 mph ()    
Max Wind Speed 15 mph    
Max Gust Speed -    
Visibility 7.0 miles    
Events      
Averages and records for this station are not official NWS values.
T = Trace of Precipitation, MM = Missing Value Source: Averaged Metar Reports

Daily Weather History Graph

Daily Weather History Graph

Search for Another Location

Airport:

Trip Planner

Search our weather history database for the weather conditions in past years. The results will help you decide how hot, cold, wet, or windy it might be!

Date:

Astronomy

Feb. 12, 2014 Rise Set
Actual Time 6:19 AM CST 5:44 PM CST
Civil Twilight 5:56 AM CST 6:07 PM CST
Nautical Twilight 5:30 AM CST 6:33 PM CST
Astronomical Twilight 5:04 AM CST 6:59 PM CST
Moon 4:02 PM CST (2/12) 4:29 AM CST (2/12)
Length of Visible Light 12h 10m
Length of Day
11h 24m
Waxing Gibbous, 95% of the Moon is Illuminated
Feb 12
Waxing Gibbous
Feb 14
Full
Feb 22
Last Quarter
Mar 1
New
Mar 8
First Quarter

Hourly Weather History & Observations

Time (CST) Temp. Heat Index Dew Point Humidity Pressure Visibility Wind Dir Wind Speed Gust Speed Precip Events Conditions
12:45 AM 73.4 °F - 71.6 °F 94% 29.97 in 7.0 mi ESE 5.8 mph - N/A   Clear
1:44 AM 73.4 °F - 71.6 °F 94% 29.95 in 7.0 mi ESE 5.8 mph - N/A   Clear
2:48 AM 73.4 °F - 71.6 °F 94% 29.91 in 7.0 mi SE 5.8 mph - N/A   Clear
3:47 AM 73.4 °F - 71.6 °F 94% 29.92 in 7.0 mi ESE 5.8 mph - N/A   Partly Cloudy
4:46 AM 73.4 °F - 71.6 °F 94% 29.92 in 7.0 mi SE 5.8 mph - N/A   Scattered Clouds
5:46 AM 75.2 °F - 71.6 °F 89% 29.94 in 7.0 mi SSE 5.8 mph - N/A   Scattered Clouds
6:46 AM 75.2 °F - 69.8 °F 83% 29.94 in 7.0 mi SSE 5.8 mph - N/A   Partly Cloudy
7:46 AM 77.0 °F - 71.6 °F 83% 29.96 in 7.0 mi SSE 5.8 mph - N/A   Scattered Clouds
8:43 AM 80.6 °F 84.6 °F 71.6 °F 74% 29.96 in 7.0 mi SSE 9.2 mph - N/A   Scattered Clouds
9:41 AM 82.4 °F 87.2 °F 71.6 °F 70% 29.96 in 7.0 mi SSE 10.4 mph - N/A   Scattered Clouds
10:43 AM 82.4 °F 87.2 °F 71.6 °F 70% 29.95 in 7.0 mi South 11.5 mph - N/A   Scattered Clouds
11:43 AM 82.4 °F 87.2 °F 71.6 °F 70% 29.91 in 7.0 mi SSE 9.2 mph - N/A   Mostly Cloudy
12:48 PM 82.4 °F 87.2 °F 71.6 °F 70% 29.90 in 7.0 mi SSE 15.0 mph - N/A   Mostly Cloudy
1:40 PM 84.2 °F 88.4 °F 69.8 °F 62% 29.88 in 7.0 mi South 10.4 mph - N/A   Mostly Cloudy
2:41 PM 84.2 °F 87.3 °F 68.0 °F 58% 29.86 in 7.0 mi SSW 11.5 mph - N/A   Mostly Cloudy
3:43 PM 84.2 °F 87.3 °F 68.0 °F 58% 29.86 in 7.0 mi South 13.8 mph - N/A   Scattered Clouds
4:47 PM 80.6 °F 83.2 °F 68.0 °F 65% 29.87 in 7.0 mi South 9.2 mph - N/A   Scattered Clouds
5:46 PM 78.8 °F - 69.8 °F 74% 29.85 in 7.0 mi South 6.9 mph - N/A   Mostly Cloudy
6:41 PM 77.0 °F - 71.6 °F 83% 29.89 in 7.0 mi South 4.6 mph - N/A   Mostly Cloudy
7:41 PM 77.0 °F - 71.6 °F 83% 29.88 in 7.0 mi SSE 5.8 mph - N/A   Mostly Cloudy
8:44 PM 73.4 °F - 71.6 °F 94% 29.89 in 7.0 mi Calm Calm - N/A   Scattered Clouds
9:47 PM 71.6 °F - 68.0 °F 88% 29.95 in 7.0 mi NW 10.4 mph - N/A   Mostly Cloudy
10:42 PM 71.6 °F - 68.0 °F 88% 29.94 in 7.0 mi WNW 8.1 mph - N/A   Mostly Cloudy
11:45 PM 69.8 °F - 68.0 °F 94% 29.88 in 7.0 mi West 4.6 mph - N/A   Mostly Cloudy